Saguache, CO

3:10 AM MDT on May 27, 2018 (GMT -0600)
Saguache

Weather History for K04V - October, 2012

Change the Weather History Date:

Thursday, October 25, 2012

  Actual Average (KALS) Record (KALS)
Temperature  
Mean Temperature 35 °F -  
Max Temperature 46 °F 58 °F 75 °F (1959)
Min Temperature 24 °F 20 °F -1 °F (1932)
Degree Days  
Heating Degree Days 30    
Moisture  
Dew Point 12 °F    
Average Humidity 40    
Maximum Humidity 69    
Minimum Humidity 15    
Precipitation  
Precipitation 0.00 in - - ()
Sea Level Pressure  
Sea Level Pressure 30.08 in    
Wind  
Wind Speed 15 mph (NW)    
Max Wind Speed 24 mph    
Max Gust Speed 33 mph    
Visibility 10 miles    
Events      
Averages and records for this station are not official NWS values.
T = Trace of Precipitation, MM = Missing Value Source: NWS Daily Summary

Daily Weather History Graph

Daily Weather History Graph

Search for Another Location

Airport or City:

Astronomy

Oct. 25, 2012 Rise Set
Actual Time 7:23 AM MDT 6:12 PM MDT
Civil Twilight 6:56 AM MDT 6:39 PM MDT
Nautical Twilight 6:25 AM MDT 7:10 PM MDT
Astronomical Twilight 5:55 AM MDT 7:41 PM MDT
Moon 3:57 PM MDT (10/25) 3:26 AM MDT (10/25)
Length of Visible Light 11h 43m
Length of Day
10h 49m
Waxing Gibbous, 85% of the Moon is Illuminated
Oct 25
Waxing Gibbous
Oct 29
Full
Nov 6
Last Quarter
Nov 13
New
Nov 20
First Quarter

Hourly Weather History & Observations

Time (MDT) Temp. Windchill Dew Point Humidity Pressure Visibility Wind Dir Wind Speed Gust Speed Precip Events Conditions
12:16 AM 35.6 °F 24.8 °F 21.2 °F 56% 29.98 in 10.0 mi NNW 19.6 mph 28.8 mph N/A   Clear
12:36 AM 33.8 °F 22.2 °F 17.6 °F 52% 30.00 in 10.0 mi NW 20.7 mph 28.8 mph N/A   Clear
12:55 AM 33.8 °F 24.3 °F 17.6 °F 52% 30.01 in 10.0 mi NW 13.8 mph - N/A   Clear
1:36 AM 35.6 °F 25.9 °F 15.8 °F 44% 30.02 in 10.0 mi NNW 16.1 mph 24.2 mph N/A   Clear
1:56 AM 33.8 °F 24.8 °F 14.0 °F 44% 30.02 in 10.0 mi NNW 12.7 mph - N/A   Clear
2:16 AM 33.8 °F 24.3 °F 15.8 °F 48% 30.03 in 10.0 mi NNW 13.8 mph - N/A   Clear
2:36 AM 33.8 °F 23.9 °F 17.6 °F 52% 30.03 in 10.0 mi NNW 15.0 mph - N/A   Clear
2:56 AM 30.2 °F 18.1 °F 15.8 °F 55% 30.03 in 10.0 mi NNW 18.4 mph - N/A   Clear
3:16 AM 30.2 °F 18.9 °F 17.6 °F 60% 30.03 in 10.0 mi NNW 16.1 mph - N/A   Clear
3:36 AM 28.4 °F 18.5 °F 15.8 °F 59% 30.04 in 10.0 mi NNW 11.5 mph - N/A   Clear
3:56 AM 28.4 °F 18.0 °F 15.8 °F 59% 30.04 in 10.0 mi NNW 12.7 mph - N/A   Clear
4:16 AM 28.4 °F 18.5 °F 17.6 °F 64% 30.05 in 10.0 mi NW 11.5 mph - N/A   Clear
4:36 AM 28.4 °F 18.5 °F 17.6 °F 64% 30.06 in 10.0 mi WNW 11.5 mph - N/A   Clear
4:55 AM 28.4 °F 18.5 °F 17.6 °F 64% 30.07 in 10.0 mi WNW 11.5 mph - N/A   Clear
5:16 AM 28.4 °F 19.1 °F 17.6 °F 64% 30.08 in 10.0 mi NW 10.4 mph - N/A   Clear
5:56 AM 28.4 °F 18.5 °F 17.6 °F 64% 30.10 in 10.0 mi NW 11.5 mph - N/A   Clear
6:16 AM 26.6 °F 17.5 °F 15.8 °F 64% 30.10 in 10.0 mi NNW 9.2 mph - N/A   Clear
6:36 AM 26.6 °F 16.8 °F 15.8 °F 64% 30.11 in 10.0 mi NW 10.4 mph - N/A   Clear
6:56 AM 24.8 °F 14.6 °F 15.8 °F 69% 30.12 in 10.0 mi NNW 10.4 mph - N/A   Clear
7:36 AM 26.6 °F 16.8 °F 15.8 °F 64% 30.12 in 10.0 mi NNW 10.4 mph - N/A   Clear
7:56 AM 26.6 °F 17.5 °F 15.8 °F 64% 30.12 in 10.0 mi NNW 9.2 mph - N/A   Clear
8:16 AM 30.2 °F 21.3 °F 17.6 °F 60% 30.13 in 10.0 mi NNW 10.4 mph - N/A   Clear
8:36 AM 33.8 °F 25.3 °F 17.6 °F 52% 30.13 in 10.0 mi NNW 11.5 mph - N/A   Clear
8:56 AM 33.8 °F 25.3 °F 15.8 °F 48% 30.14 in 10.0 mi NW 11.5 mph - N/A   Clear
9:15 AM 35.6 °F 28.0 °F 15.8 °F 44% 30.14 in 10.0 mi NW 10.4 mph - N/A   Clear
9:56 AM 37.4 °F 29.8 °F 14.0 °F 38% 30.13 in 10.0 mi NNW 11.5 mph - N/A   Clear
10:16 AM 37.4 °F 30.8 °F 12.2 °F 36% 30.12 in 10.0 mi NW 9.2 mph - N/A   Clear
10:35 AM 39.2 °F 33.6 °F 10.4 °F 31% 30.10 in 10.0 mi North 8.1 mph - N/A   Clear
11:16 AM 42.8 °F 37.0 °F 5.0 °F 21% 30.10 in 10.0 mi NW 10.4 mph 17.3 mph N/A   Clear
11:36 AM 42.8 °F 37.0 °F -0.4 °F 16% 30.09 in 10.0 mi NW 10.4 mph 20.7 mph N/A   Clear
11:55 AM 44.6 °F 38.1 °F 1.4 °F 17% 30.09 in 10.0 mi West 13.8 mph 17.3 mph N/A   Scattered Clouds
12:16 PM 44.6 °F 42.2 °F -0.4 °F 15% 30.09 in 10.0 mi WNW 4.6 mph - N/A   Scattered Clouds
12:56 PM 46.4 °F 44.3 °F 1.4 °F 16% 30.07 in 10.0 mi WSW 4.6 mph - N/A   Mostly Cloudy
1:16 PM 44.6 °F - 3.2 °F 18% 30.06 in 10.0 mi Calm Calm - N/A   Overcast
1:36 PM 46.4 °F 45.2 °F 3.2 °F 17% 30.05 in 10.0 mi West 3.5 mph - N/A   Overcast
1:56 PM 44.6 °F 37.4 °F 1.4 °F 17% 30.04 in 10.0 mi NNW 16.1 mph 21.9 mph N/A   Mostly Cloudy
2:16 PM 44.6 °F 38.1 °F 1.4 °F 17% 30.03 in 10.0 mi NNW 13.8 mph 23.0 mph N/A   Mostly Cloudy
2:36 PM 46.4 °F 41.5 °F 3.2 °F 17% 30.03 in 10.0 mi NNW 10.4 mph 16.1 mph N/A   Scattered Clouds
2:56 PM 44.6 °F 37.8 °F 6.8 °F 21% 30.03 in 10.0 mi NNW 15.0 mph 24.2 mph N/A   Mostly Cloudy
3:16 PM 46.4 °F 40.1 °F 6.8 °F 20% 30.04 in 10.0 mi NW 15.0 mph 23.0 mph N/A   Mostly Cloudy
3:36 PM 46.4 °F 39.2 °F 6.8 °F 20% 30.04 in 10.0 mi NW 18.4 mph 23.0 mph N/A   Mostly Cloudy
3:56 PM 44.6 °F 37.4 °F 8.6 °F 23% 30.05 in 10.0 mi NW 16.1 mph - N/A   Mostly Cloudy
4:16 PM 42.8 °F 34.8 °F 8.6 °F 25% 30.05 in 10.0 mi NNW 17.3 mph 23.0 mph N/A   Scattered Clouds
4:35 PM 44.6 °F 36.9 °F 8.6 °F 23% 30.04 in 10.0 mi NNW 18.4 mph - N/A   Scattered Clouds
4:56 PM 42.8 °F 35.1 °F 8.6 °F 25% 30.05 in 10.0 mi NNW 16.1 mph 25.3 mph N/A   Scattered Clouds
5:16 PM 41.0 °F 32.2 °F 8.6 °F 26% 30.06 in 10.0 mi NNW 18.4 mph 24.2 mph N/A   Mostly Cloudy
5:36 PM 41.0 °F 31.1 °F 8.6 °F 26% 30.08 in 10.0 mi NNW 23.0 mph 28.8 mph N/A   Overcast
6:16 PM 39.2 °F 29.0 °F 8.6 °F 28% 30.09 in 10.0 mi NNW 21.9 mph 26.5 mph N/A   Overcast
6:36 PM 37.4 °F 26.6 °F 6.8 °F 28% 30.09 in 10.0 mi NNW 21.9 mph 25.3 mph N/A   Overcast
6:56 PM 37.4 °F 26.6 °F 8.6 °F 30% 30.11 in 10.0 mi NW 21.9 mph 26.5 mph N/A   Overcast
7:16 PM 37.4 °F 27.2 °F 10.4 °F 33% 30.12 in 10.0 mi NW 19.6 mph 26.5 mph N/A   Overcast
7:36 PM 37.4 °F 26.9 °F 10.4 °F 33% 30.12 in 10.0 mi NW 20.7 mph 29.9 mph N/A   Overcast
7:56 PM 37.4 °F 26.1 °F 12.2 °F 36% 30.13 in 10.0 mi NW 24.2 mph 32.2 mph N/A   Overcast
8:16 PM 35.6 °F 24.2 °F 12.2 °F 38% 30.14 in 10.0 mi NNW 21.9 mph 33.4 mph N/A   Overcast
8:56 PM 35.6 °F 25.2 °F 12.2 °F 38% 30.15 in 10.0 mi NW 18.4 mph - N/A   Overcast
9:36 PM 33.8 °F 21.9 °F 14.0 °F 44% 30.15 in 10.0 mi NW 21.9 mph 28.8 mph N/A   Mostly Cloudy
9:56 PM 33.8 °F 23.2 °F 14.0 °F 44% 30.16 in 10.0 mi NW 17.3 mph - N/A   Mostly Cloudy
10:15 PM 33.8 °F 24.3 °F 14.0 °F 44% 30.17 in 10.0 mi NW 13.8 mph - N/A   Overcast
10:35 PM 33.8 °F 24.3 °F 14.0 °F 44% 30.17 in 10.0 mi NW 13.8 mph - N/A   Overcast
10:56 PM 33.8 °F 24.8 °F 14.0 °F 44% 30.17 in 10.0 mi NW 12.7 mph 17.3 mph N/A   Overcast
11:16 PM 33.8 °F 23.2 °F 14.0 °F 44% 30.17 in 10.0 mi NW 17.3 mph 26.5 mph N/A   Overcast
11:35 PM 33.8 °F 22.5 °F 14.0 °F 44% 30.17 in 10.0 mi NW 19.6 mph 28.8 mph N/A   Overcast